Regional Weather Roundup
Issued by NWS Northern Indiana

Home | Current Version | Previous Version | Graphics & Text | Print | Product List | Glossary On
Versions: 1 2 3 4 5 6 7 8 9 10 11 12 13 14 15 16 17 18 19 20 21 22 23 24 25 26 27 28 29 30 31 32 33 34 35 36 37 38 39 40 41 42 43 44 45 46 47 48 49 50
000
ASUS43 KIWX 160600
RWRIWX

KIWX WEATHER ROUNDUP
NATIONAL WEATHER SERVICE NORTHERN INDIANA
200 AM EDT TUE SEP 16 2014

NOTE: "FAIR" INDICATES FEW OR NO CLOUDS BELOW 12,000 FEET WITH NO
SIGNIFICANT WEATHER AND/OR OBSTRUCTIONS TO VISIBILITY.

* THESE STATIONS ARE NOT UNDER NWS QUALITY CONTROL. THEY ALSO MAY NOT
  REPORT WEATHER SUCH AS PRECIPITATION OR FOG.

INZ001>027-160700-
NORTHERN INDIANA

CITY           SKY/WX    TMP DP  RH WIND       PRES   REMARKS
GARY*          PTCLDY    56  51  85 NW8       30.17R
VALPARAISO     CLOUDY    55  52  89 N6        30.15S
6HR MIN TEMP:  54; 6HR MAX TEMP:  55; 6HR PCP: TRACE;

KNOX*          CLOUDY    54  52  94 CALM      30.14S
6HR MIN TEMP:  41; 6HR MAX TEMP:  89;

SOUTH BEND     MOCLDY    52  50  93 N6        30.15S FOG
6HR MIN TEMP:  51; 6HR MAX TEMP:  55;

GOSHEN         CLOUDY    55  52  89 N5        30.13S FOG
6HR MIN TEMP:  50; 6HR MAX TEMP:  56; 6HR PCP:  0.07;

WARSAW*        CLOUDY    50  50 100 CALM      30.14S FOG
ANGOLA*        CLOUDY    54  43  66 W3        30.13R
FORT WAYNE     CLOUDY    53  52  96 NW3       30.14R FOG
6HR MIN TEMP:  49; 6HR MAX TEMP:  55; 6HR PCP:  0.07;

PERU/GRISSOM   FOG       53  53 100 NW3       30.13S VSB 1/4
6HR MIN TEMP:  53; 6HR MAX TEMP:  56; 6HR PCP:  0.10;


$$
INZ028>050-160700-
CENTRAL INDIANA

CITY           SKY/WX    TMP DP  RH WIND       PRES   REMARKS
LAFAYETTE      CLOUDY    54  53  97 N8        30.14S
6HR MIN TEMP:  54; 6HR MAX TEMP:  56; 6HR PCP:  0.02;

KOKOMO*        CLOUDY    54  52  94 N6        30.13S
6HR MIN TEMP:  54; 6HR MAX TEMP:  57; 6HR PCP:  0.02;

MUNCIE*        CLOUDY    56  54  93 N5        30.12S FOG
6HR MIN TEMP:  56; 6HR MAX TEMP:  58; 6HR PCP:  0.05;

INDIANAPOLIS   CLOUDY    56  55  97 N6        30.11S
6HR MIN TEMP:  56; 6HR MAX TEMP:  57; 6HR PCP:  0.10;


$$
MIZ043>046-050>051-056>058-064>065-071>073-077>080-160700-
SOUTHWEST LOWER MICHIGAN

CITY           SKY/WX    TMP DP  RH WIND       PRES   REMARKS
BATTLE CREEK   CLOUDY    53  50  89 CALM      30.14S
6HR MIN TEMP:  50; 6HR MAX TEMP:  55; 6HR PCP:  0.03;

BENTON HARBOR  CLOUDY    52  50  93 VRB5      30.15R
6HR MIN TEMP:  52; 6HR MAX TEMP:  58;

COLDWATER*     CLOUDY    54  53  97 NW5       30.13S FOG
6HR MIN TEMP:  50; 6HR MAX TEMP:  56;

HILLSDALE*     CLOUDY    54  54 100 W5        30.12R FOG
HOLLAND        FOG       47  45  93 CALM      30.16R VSB 1/2
6HR MIN TEMP:  45; 6HR MAX TEMP:  56;

GRAND RAPIDS   CLEAR     50  49  96 NW5       30.15R
6HR MIN TEMP:  50; 6HR MAX TEMP:  55; 6HR PCP: TRACE;

KALAMAZOO      CLOUDY    53  50  89 N7        30.15R
6HR MIN TEMP:  52; 6HR MAX TEMP:  55; 6HR PCP: TRACE;

STURGIS*       CLOUDY    52  52 100 N5        30.13S FOG
THREE RIVERS*  CLOUDY    54  52  95 N6        30.14S FOG

$$
OHZ001>008-015>018-024>025-160700-
NORTHWEST OHIO

CITY           SKY/WX    TMP DP  RH WIND       PRES   REMARKS
DEFIANCE       CLOUDY    53  51  93 CALM      30.13R FOG
6HR MIN TEMP:  50; 6HR MAX TEMP:  56; 6HR PCP:  0.05;

FINDLAY        CLOUDY    53  51  93 MISG      30.10F FOG
6HR MIN TEMP:  53; 6HR MAX TEMP:  58; 6HR PCP:  0.13;

TOLEDO EXPRESS CLOUDY    52  52 100 W8        30.11R FOG
6HR MIN TEMP:  52; 6HR MAX TEMP:  54; 6HR PCP:  0.09;

TOLEDO METCALF MOCLDY    52  50  93 W3        30.12R FOG
6HR MIN TEMP:  51; 6HR MAX TEMP:  55; 6HR PCP:  0.18;

LIMA           MOCLDY    54  52  93 CALM      30.11S FOG
6HR MIN TEMP:  54; 6HR MAX TEMP:  57; 6HR PCP:  0.20;


$$
&&


USA.gov is the U.S. government's official web portal to all federal, state and local government web resources and services.